EST,Max TemperatureF,Mean TemperatureF,Min TemperatureF,Max Dew PointF,MeanDew PointF,Min DewpointF,Max Humidity, Mean Humidity, Min Humidity, Max Sea Level PressureIn, Mean Sea Level PressureIn, Min Sea Level PressureIn, Max VisibilityMiles, Mean VisibilityMiles, Min VisibilityMiles, Max Wind SpeedMPH, Mean Wind SpeedMPH, Max Gust SpeedMPH,PrecipitationIn, CloudCover, Events, WindDirDegrees
2013-1-1,42,36,30,28,25,19,75,62,53,30.03,29.99,29.93,10,10,10,10,3,16,0.00,4,,326
2013-1-2,35,30,24,27,16,10,75,56,41,30.25,30.13,30.02,10,10,10,16,4,22,0.00,1,,347
2013-1-3,35,27,19,18,15,10,86,59,41,30.26,30.21,30.16,10,10,10,9,2,,0.00,0,,282
2013-1-4,39,34,28,19,18,18,64,52,42,30.22,30.17,30.12,10,10,10,20,9,26,0.00,3,,302
2013-1-5,41,34,28,25,19,18,64,54,42,30.39,30.28,30.15,10,10,10,15,8,28,0.00,1,,298
2013-1-6,48,38,28,32,27,25,93,63,40,30.21,30.12,30.05,10,10,8,12,3,16,0.00,6,,283
2013-1-7,44,35,26,28,24,19,80,59,46,30.45,30.37,30.17,10,10,10,15,6,20,0.00,5,,333
2013-1-8,51,38,24,30,27,19,93,64,38,30.44,30.40,30.37,10,10,10,8,3,,0.00,0,,207
2013-1-9,48,38,28,39,32,25,93,78,46,30.40,30.35,30.25,10,9,5,15,2,20,0.01,1,,279
2013-1-10,51,43,35,28,26,23,65,49,37,30.62,30.52,30.41,10,10,10,14,5,22,0.00,0,,337
2013-1-11,44,38,33,41,33,27,93,76,57,30.53,30.31,30.12,10,7,1,10,3,,0.09,6,,165
2013-1-12,57,48,39,46,42,39,100,87,67,30.19,30.15,30.12,10,5,0,6,2,,0.00,4,,222
2013-1-13,53,48,42,52,47,43,100,96,88,30.15,30.08,30.00,4,0,0,9,5,,0.00,8,,158
2013-1-14,59,48,37,57,44,34,100,80,58,30.34,30.17,29.98,10,9,0,13,4,21,0.16,6,,325
2013-1-15,37,35,33,36,35,30,93,93,87,30.36,30.28,30.17,10,5,2,6,2,,0.52,8,,65
2013-1-16,39,36,33,37,34,30,100,92,87,30.17,30.02,29.88,10,8,2,13,2,21,0.36,7,,293
2013-1-17,42,38,35,37,30,25,93,70,49,30.15,30.09,30.00,10,10,5,15,4,20,0.00,3,,330
2013-1-18,35,32,28,27,15,7,70,51,35,30.50,30.38,30.08,10,10,10,16,7,24,0.00,1,,318
2013-1-19,53,40,28,27,23,18,69,52,33,30.42,30.23,29.98,10,10,10,10,6,17,0.00,0,,216
2013-1-20,55,44,30,28,20,9,60,41,21,30.11,29.94,29.84,10,10,10,24,8,34,0.00,0,,289
2013-1-21,42,34,26,21,16,9,64,52,38,30.11,30.00,29.82,10,10,10,16,4,39,0.00,3,,90
2013-1-22,26,19,12,9,-3,-8,57,40,30,30.29,30.17,29.96,10,10,10,22,14,33,0.00,0,,320
2013-1-23,23,16,8,7,0,-2,85,49,33,30.35,30.26,30.14,10,10,10,18,5,23,0.00,3,,315
2013-1-24,24,19,14,14,6,0,86,61,34,30.52,30.32,30.10,10,7,2,24,5,28,0.00,3,,350
2013-1-25,21,16,12,16,7,0,93,65,42,30.51,30.30,30.08,10,9,0,10,4,18,0.00,4,,205
2013-1-26,30,24,19,21,18,16,93,78,60,30.44,30.24,30.09,10,10,6,12,2,17,0.01,5,,319
2013-1-27,35,27,19,19,17,14,93,65,48,30.61,30.52,30.45,10,10,5,7,2,,0.00,1,,276
2013-1-28,39,34,28,37,30,19,93,85,64,30.51,30.26,30.07,10,5,2,9,5,,0.14,6,,211
2013-1-29,66,50,33,52,44,32,100,79,56,30.15,30.07,30.00,10,7,0,10,3,,0.00,1,,167
2013-1-30,68,62,55,61,54,48,94,86,72,30.00,29.70,29.29,10,9,3,22,8,29,2.63,6,,182
2013-1-31,57,42,26,55,25,10,100,56,36,29.92,29.61,29.19,10,10,5,34,14,46,0.46,4,,297